Theta_e
300 298 299 302 302 303 302 303 301 301 301 301 300 301 302 302 298 298 299 298 298 298 299 298 301 302 302 302 303 303 303 302 302 301 300 300 300 301 301 301 300 301 300 300
297 297 298 300 300 301 301 301 300 301 301 300 300 300 302 302 301 301 301 301 300 300 296 297 298 300 300 301 302 302 302 302 301 301 300 300 300 301 301 300 300 301 300 299
297 299 299 300 300 300 300 300 300 302 302 300 299 301 302 303 301 301 302 302 301 301 299 297 297 298 300 300 300 301 302 302 301 300 300 300 300 299 299 300 301 301 299 299
297 298 299 299 300 299 299 299 301 302 302 300 302 301 302 304 304 304 303 300 301 299 299 298 297 297 299 299 300 301 302 302 301 300 300 300 300 299 300 300 301 300 299 298
298 297 298 299 298 298 299 300 301 301 301 301 301 301 300 302 305 306 303 301 299 298 297 297 298 298 299 299 300 301 302 302 301 301 300 300 300 299 299 299 299 299 298 297
297 296 297 298 297 298 298 300 301 301 300 301 300 300 299 303 305 307 305 304 301 299 297 296 297 299 298 299 299 300 301 301 301 301 300 300 299 299 299 299 299 298 298 297
298 297 296 296 297 297 299 299 303 303 299 303 301 301 302 303 304 304 306 303 302 298 297 296 295 295 296 297 299 299 300 300 301 301 300 300 300 299 299 299 298 297 297 296
297 298 295 295 296 297 298 298 303 301 308 308 301 304 306 304 303 302 302 302 300 298 297 296 295 296 297 297 298 299 299 300 300 300 300 300 300 299 299 298 298 297 297 296
297 301 295 295 295 296 297 300 301 302 296 302 302 301 302 304 302 302 301 299 299 299 298 297 296 295 297 298 299 299 300 300 300 300 300 300 299 298 298 298 297 297 296 295
299 301 296 295 295 295 297 297 300 299 297 301 304 303 304 306 305 301 301 299 298 298 297 296 295 295 297 298 299 300 300 300 300 300 300 300 299 298 298 298 297 296 296 295
296 300 297 295 294 296 296 298 297 298 302 304 307 306 302 303 304 302 300 299 298 297 297 296 295 296 297 299 300 300 300 300 299 300 300 299 299 298 298 298 297 296 295 295
301 302 296 295 294 294 295 298 299 300 301 303 307 306 304 302 303 302 303 301 299 297 296 295 295 295 296 297 299 300 300 300 300 300 300 299 299 298 298 297 296 295 295 294
302 303 298 297 295 292 292 295 298 299 300 301 303 305 301 303 304 303 304 303 300 298 296 296 295 295 294 296 298 299 300 300 300 300 299 299 298 298 297 297 296 295 294 294
304 305 307 308 300 294 292 291 297 297 297 303 304 304 305 303 303 302 302 303 301 299 298 297 295 294 295 297 298 298 299 300 300 299 299 299 298 298 297 296 295 295 294 294
304 305 306 307 302 296 297 292 296 298 301 301 303 301 301 301 301 301 300 300 300 300 299 297 297 297 295 295 297 298 299 299 299 298 298 298 298 298 297 296 295 294 293 293
300 307 303 307 306 304 305 304 295 298 299 299 300 299 301 300 298 298 299 299 299 299 298 298 298 296 296 297 297 297 298 298 298 297 298 298 297 297 296 295 294 293 293 293
300 303 302 309 307 307 305 305 305 301 297 299 300 300 301 300 300 301 302 300 300 299 299 298 297 298 298 298 298 297 299 298 297 296 296 296 296 296 296 295 294 293 293 292
301 301 304 308 304 308 306 304 304 304 303 300 301 302 303 302 302 301 300 300 301 301 301 299 298 297 298 300 299 300 298 298 296 295 295 295 295 295 295 294 293 293 292 292
302 304 306 308 306 305 305 303 299 302 303 293 294 295 295 294 297 299 294 293 295 296 298 298 298 298 299 299 300 298 296 296 294 293 294 294 295 294 294 293 293 292 292 292
303 304 305 307 308 308 304 299 293 297 305 290 289 290 290 292 299 296 289 289 290 292 291 293 294 294 295 297 297 295 293 292 292 293 294 295 294 294 293 293 292 292 292 292
299 302 303 304 305 304 292 291 291 303 297 288 287 287 288 289 288 288 286 286 286 287 286 288 290 291 292 293 293 292 292 291 295 294 294 294 294 294 294 293 292 292 291 290
295 300 302 302 302 302 291 290 296 290 289 287 285 285 285 285 286 285 284 284 284 283 283 284 285 288 289 289 290 291 291 292 293 293 293 293 293 293 293 293 292 290 289 287
297 291 294 292 293 291 289 289 288 287 288 285 284 282 283 283 284 284 282 282 282 281 282 281 282 283 284 286 287 289 291 292 292 292 292 292 292 292 292 291 290 288 287 286
292 291 290 290 292 290 287 284 283 284 283 281 280 279 279 279 281 282 281 281 281 280 279 279 279 280 280 281 284 286 289 292 293 292 291 290 290 290 290 290 289 288 287 286
288 288 289 291 290 285 281 280 278 280 279 278 277 277 277 277 278 279 278 278 278 278 276 276 277 277 277 278 282 284 287 288 290 290 290 290 289 289 288 289 289 288 289 288
284 283 288 287 281 284 282 277 275 275 275 274 274 274 274 275 276 275 274 274 273 273 272 274 274 274 274 276 278 279 283 286 287 289 288 288 288 288 288 287 287 288 289 289
Wind_Speed
2 3 9 14 9 2 3 3 4 3 3 3 9 18 19 15 9 12 16 14 14 17 15 24 31 36 38 41 43 41 39 36 32 29 24 20 17 15 13 10 8 9 7 6
2 9 8 2 5 6 4 4 6 4 2 3 6 18 18 17 13 16 19 18 20 16 10 13 25 33 34 41 45 43 41 38 35 33 29 18 19 16 14 12 10 11 7 7
8 4 3 5 4 5 4 6 4 5 3 4 6 11 8 8 9 10 16 17 15 19 17 14 16 28 33 35 41 43 42 40 37 34 28 18 15 11 14 14 12 11 8 7
7 3 5 4 5 7 5 4 2 2 1 4 1 7 7 7 11 7 9 10 14 13 10 14 17 18 28 34 39 42 42 41 38 35 31 28 23 15 14 12 12 9 8 8
7 6 5 4 5 7 5 2 3 2 2 4 2 3 8 5 8 11 8 10 10 9 10 13 16 26 33 34 42 45 44 43 40 37 34 30 24 18 11 12 11 9 9 9
3 1 3 4 3 2 5 5 6 5 2 3 8 8 5 5 6 5 3 5 6 8 8 8 13 23 25 32 37 41 44 45 41 39 36 32 28 21 17 14 12 10 10 10
0 4 2 3 4 4 2 6 1 3 1 7 3 4 5 10 9 6 3 7 6 6 7 8 10 11 18 28 34 39 42 41 41 38 37 34 29 24 21 17 14 12 12 12
7 5 9 6 6 6 7 6 5 8 4 3 2 8 7 10 9 9 8 6 5 6 7 8 9 11 21 26 31 34 38 37 41 39 40 36 30 27 23 19 15 13 14 12
5 5 2 2 1 3 6 6 3 4 1 3 5 7 10 10 10 5 7 5 8 8 7 8 6 9 18 25 32 40 41 40 42 43 40 36 32 28 25 21 16 14 14 13
7 1 1 2 2 2 4 1 2 2 2 5 5 6 8 5 6 6 6 10 8 6 6 6 7 9 20 26 32 35 38 41 42 41 40 37 34 29 25 21 18 17 14 14
4 4 0 2 8 11 4 3 2 2 4 5 2 6 7 8 7 9 10 8 8 8 8 7 7 10 16 18 27 33 35 35 36 38 38 36 32 29 25 23 19 18 15 15
5 4 5 9 1 1 2 6 7 4 6 4 3 11 2 5 2 6 3 6 6 7 8 7 7 6 9 18 23 30 33 35 37 37 36 35 31 29 28 25 21 18 17 16
6 3 1 5 4 4 5 6 4 4 2 8 6 7 2 2 3 2 3 1 4 7 7 7 5 7 9 19 25 29 32 36 35 33 33 33 33 32 30 26 22 20 19 17
9 3 6 9 5 5 4 5 13 6 3 9 17 8 3 2 5 5 5 3 6 7 8 7 7 9 11 20 26 30 33 35 34 32 33 34 36 34 31 27 24 23 21 19
8 10 14 23 8 5 5 5 10 17 25 9 24 14 9 8 8 7 6 7 6 8 7 9 10 11 11 16 26 30 34 33 33 32 34 37 36 34 30 27 26 24 21 19
3 7 3 14 18 8 12 11 10 20 20 18 22 16 1 6 7 7 8 7 7 9 10 11 12 10 11 18 24 29 32 34 33 34 37 36 35 33 31 30 27 25 22 20
11 8 7 5 7 9 5 23 18 12 11 16 16 19 5 10 14 15 15 9 12 12 13 11 12 14 14 20 28 27 36 33 33 35 35 36 35 35 34 32 29 26 25 21
3 3 5 7 4 12 9 8 19 24 25 19 18 20 19 15 15 11 7 9 16 14 14 10 10 10 21 31 30 36 31 31 34 34 35 36 36 36 35 32 30 28 25 23
15 8 5 6 13 13 6 3 5 8 5 12 9 11 10 13 11 2 17 18 17 20 15 12 16 21 23 27 36 32 28 31 31 31 34 37 38 36 36 35 33 30 27 25
15 16 12 7 5 10 4 5 11 4 7 10 11 12 15 14 5 3 21 19 21 19 21 18 25 24 23 30 26 24 25 27 27 34 37 39 39 38 38 38 35 31 29 26
2 5 14 14 13 6 9 14 5 5 3 6 9 10 12 8 6 14 15 16 15 17 26 31 26 21 24 24 18 20 21 23 37 33 36 37 38 39 39 37 33 31 28 24
7 5 5 9 12 15 10 3 3 2 4 3 7 8 9 9 10 11 12 13 15 18 23 29 24 25 29 29 14 9 10 17 21 29 33 34 35 36 36 33 31 29 27 22
5 1 1 2 3 3 6 10 6 2 2 2 1 8 8 10 10 11 12 15 11 12 19 25 22 24 27 31 29 16 9 7 13 21 26 29 31 34 34 34 31 26 24 18
1 2 1 4 4 5 8 7 6 4 3 5 5 7 8 11 13 12 11 13 13 13 15 23 25 22 24 31 29 25 20 11 12 18 22 25 29 29 31 31 30 25 21 19
4 2 2 3 3 7 4 4 2 2 3 7 9 8 9 12 14 14 13 14 14 19 22 23 19 19 23 27 26 30 31 19 14 16 20 24 25 27 27 30 32 30 29 28
2 2 2 2 4 4 5 4 5 6 7 8 10 14 14 11 13 14 13 16 17 20 25 23 22 21 24 26 27 32 31 28 17 16 17 20 20 22 22 22 20 27 29 27
Wind_Direction
243 149 213 205 199 178 146 222 261 277 203 211 229 257 261 272 251 251 241 234 232 230 223 209 209 207 204 203 202 202 199 200 198 194 194 198 205 210 214 211 217 238 243 270
49 237 237 245 207 229 231 250 260 259 146 205 292 273 274 265 250 233 241 231 229 222 205 198 198 199 200 199 201 200 201 199 201 201 200 200 206 215 210 210 215 228 238 272
178 222 146 166 180 189 228 207 219 236 312 227 307 274 257 259 249 252 242 241 226 218 209 196 195 195 196 197 198 200 201 201 204 202 200 198 185 192 201 205 210 221 244 267
230 228 177 173 212 166 247 206 162 170 121 248 169 286 281 276 277 254 248 224 229 215 208 198 193 189 192 196 200 202 203 203 206 203 203 206 202 200 210 206 200 218 241 263
236 174 176 184 208 167 227 118 142 109 183 355 232 280 272 272 276 263 271 238 223 214 198 194 195 193 194 189 197 202 203 204 207 204 208 210 214 215 201 196 204 218 238 253
253 340 200 200 79 36 132 70 43 47 68 296 199 190 232 228 238 286 295 303 232 217 213 200 197 191 186 189 192 194 199 204 206 204 208 213 216 212 209 208 214 221 237 241
192 215 188 152 95 22 97 101 327 341 347 231 151 183 262 267 248 232 255 272 246 209 185 174 172 169 170 178 187 192 196 201 206 206 210 214 217 217 218 217 221 224 234 240
165 283 169 180 200 177 184 174 170 206 205 252 37 234 253 243 282 254 259 235 195 190 185 187 185 179 179 181 186 189 196 200 206 208 211 214 217 218 219 221 223 230 239 246
142 261 144 125 137 146 192 206 198 103 67 35 225 280 294 261 255 258 232 188 213 211 193 197 188 181 177 182 188 192 198 203 209 211 211 212 216 215 216 219 224 228 235 243
201 100 238 134 147 231 178 223 110 359 186 246 272 265 233 273 246 225 233 227 232 243 227 209 197 191 193 193 194 196 202 206 211 212 212 213 216 216 217 217 221 225 231 235
139 126 169 84 205 183 156 204 201 138 168 182 273 258 220 236 209 212 232 232 221 223 220 217 222 213 205 201 197 200 206 210 212 213 213 216 216 214 214 218 221 224 227 231
216 150 172 205 262 357 243 189 165 142 224 230 179 256 275 264 178 208 257 240 227 228 235 224 215 207 208 212 210 211 213 214 217 216 216 217 216 212 213 216 219 221 226 228
191 203 88 341 353 354 207 208 206 116 90 216 150 254 301 185 85 67 147 168 194 205 211 225 226 213 214 216 216 217 219 221 221 219 218 217 214 211 213 215 217 219 221 225
120 198 204 219 192 135 197 211 197 162 159 221 230 218 337 282 219 200 206 182 212 215 204 206 216 222 222 222 220 220 223 225 224 219 217 215 212 212 214 215 216 218 219 221
164 209 206 230 188 174 197 190 203 206 227 196 249 225 226 243 235 246 267 281 247 232 230 231 224 223 222 217 223 224 226 226 222 216 214 215 214 213 213 213 215 216 217 220
198 231 162 252 231 215 242 253 212 224 243 252 262 269 16 281 308 319 297 274 266 260 241 235 230 233 226 224 222 220 224 225 218 215 214 213 212 210 211 212 211 211 214 216
171 171 168 235 195 235 219 231 230 226 210 223 243 251 215 262 264 258 260 272 260 252 252 243 232 237 237 230 225 218 224 224 215 214 212 211 209 207 209 209 207 209 212 213
190 187 188 234 124 234 238 177 213 215 231 220 250 258 254 250 265 270 350 302 291 286 280 264 247 243 237 240 237 239 231 223 213 207 207 209 206 206 206 204 206 210 211 213
213 219 248 225 234 246 302 212 152 164 214 17 342 346 348 337 304 284 13 349 341 344 327 303 285 258 254 249 249 236 218 212 202 201 202 205 203 201 202 202 207 209 208 212
209 220 231 247 251 248 245 332 351 287 217 18 11 7 351 331 266 66 346 343 337 340 345 344 334 322 304 287 266 226 206 196 195 203 201 206 203 203 199 204 206 207 209 215
190 221 232 235 248 251 336 316 282 186 48 21 14 13 12 12 337 316 326 333 336 336 337 347 351 339 324 322 285 219 200 201 211 205 204 201 202 203 205 205 207 207 209 214
263 291 232 232 226 240 344 22 38 44 102 37 355 352 347 336 327 324 319 331 341 341 343 350 350 348 341 347 312 262 235 232 220 209 200 199 200 201 204 205 205 206 207 211
257 309 4 45 324 54 26 99 97 53 127 113 331 324 325 319 323 324 321 325 336 338 338 342 350 350 354 359 1 330 295 277 218 205 200 198 200 202 205 202 200 196 202 202
283 126 111 352 119 148 133 101 66 13 0 347 344 318 321 315 317 322 328 325 324 330 339 346 0 353 345 347 349 350 330 279 214 204 205 202 199 199 205 207 205 197 197 203
191 137 216 218 145 94 58 79 32 344 352 333 329 333 328 322 318 326 330 327 326 330 340 344 347 342 334 340 340 345 351 323 261 227 212 206 202 200 200 207 205 205 215 215
30 184 176 230 27 342 91 94 20 352 344 342 339 327 326 324 322 329 322 323 321 325 330 334 331 332 328 335 338 341 345 345 295 255 230 217 203 201 204 206 214 223 229 231